Hourly Data Report for December 27, 2018

EUREKA CLIMATE
NUNAVUT
Current Station Operator: ECCC - MSC

79°59'21.000" N
85°56'02.000" W
10.00 m
2401199
71613
NEK

Download Data

Hourly Data (December 2018)
Hourly Data Report for December 27, 2018
TIME
LST
Temp Definition
°C
Dew Point Definition
°C
Rel Hum Definition
%
Precip. Amount Definition
mm

Wind Dir Definition
10's deg

Wind Spd Definition
km/h
Visibility Definition
km
Stn Press Definition
kPa
Hmdx Definition


Wind Chill Definition


Weather Definition


00:00 -40.2 -44.2 65 0.0 4 5   102.51   -47 LegendNANA
01:00 -40.4 -44.5 65 0.0 8 2   102.60   -43 LegendNANA
02:00 -40.3 -44.5 64 0.0 5 4   102.67   -46 LegendNANA
03:00 -40.1 -44.1 65 0.0 12 11   102.75   -52 LegendNANA
04:00 -40.6 -44.7 65 0.0 11 8   102.78   -50 LegendNANA
05:00 -39.3 -43.3 66 0.0 9 10   102.82   -50 LegendNANA
06:00 -38.6 -42.5 67 0.0 9 5   102.85   -45 LegendNANA
07:00 -38.2 -42.0 67 0.0 11 13   102.89   -51 LegendNANA
08:00 -36.9 -40.6 69 0.0 11 13   102.93   -49 LegendNANA
09:00 -37.3 -41.0 68 0.0 11 12   103.00   -49 LegendNANA
10:00 -35.8 -39.4 70 0.0 10 6   103.04   -43 LegendNANA
11:00 -34.4 -37.9 71 0.0 6 7   103.06   -42 LegendNANA
12:00 -35.8 -39.3 70 0.0 11 14   103.14   -48 LegendNANA
13:00 -35.8 -39.4 70 0.0 11 14   103.17   -48 LegendNANA
14:00 -36.2 -39.8 69 0.0 11 16   103.22   -49 LegendNANA
15:00 -35.7 -39.3 70 0.0 10 7   103.26   -44 LegendNANA
16:00 -36.6 -40.3 69 0.0 11 13   103.29   -49 LegendNANA
17:00 -36.5 -40.2 69 0.0 4 7   103.29   -45 LegendNANA
18:00 -36.9 -40.6 68 0.0 3 11   103.30   -48 LegendNANA
19:00 -37.8 -41.6 67 0.0 11 3   103.31   -42 LegendNANA
20:00 -39.5 -43.5 66 0.0 13 3   103.30   -44 LegendNANA
21:00 -39.2 -43.2 66 0.0 11 5   103.25   -46 LegendNANA
22:00 -39.8 -43.8 65 0.0 12 6   103.24   -48 LegendNANA
23:00 -39.6 -43.7 65 0.0 12 7   103.21   -48 LegendNANA

Notes on Data Quality.

Legend

  • E = Estimated
  • M = Missing
  • NA = Not Available*
  • [empty] = Indicates an unobserved value
Date modified: